| time (UTC) | temp F | wind direction | speed MPH | gust MPH | rain 1hr in | rain 24hr in | rain mn in | humidity % | barometer mb |
| 20260831125007 | 81 | 115 | 0.0 | 2.0 | 0.00 | 0.00 | 0.00 | 56 | 1009.2 |
| 20260831124507 | 81 | 95 | 0.0 | 1.0 | 0.00 | 0.00 | 0.00 | 55 | 1009.1 |
| 20260831124005 | 81 | 78 | 0.0 | 2.0 | 0.00 | 0.00 | 0.00 | 55 | 1009.0 |
| 20260831123508 | 81 | 106 | 0.0 | 2.0 | 0.00 | 0.00 | 0.00 | 55 | 1009.0 |
| 20260831123007 | 81 | 143 | 0.0 | 2.0 | 0.00 | 0.00 | 0.00 | 54 | 1009.0 |
| 20260831122505 | 81 | 146 | 0.0 | 2.0 | 0.00 | 0.00 | 0.00 | 53 | 1008.9 |
| 20260831122005 | 81 | 175 | 0.0 | 3.0 | 0.00 | 0.00 | 0.00 | 52 | 1008.9 |
| 20260831121505 | 81 | 57 | 0.0 | 3.0 | 0.00 | 0.00 | 0.00 | 52 | 1009.0 |
| 20260831121003 | 81 | 56 | 0.0 | 3.0 | 0.00 | 0.00 | 0.00 | 51 | 1008.8 |
| 20260831120503 | 81 | 130 | 0.0 | 2.0 | 0.00 | 0.00 | 0.00 | 50 | 1008.9 |
| 20260831120002 | 81 | 51 | 0.0 | 3.0 | 0.00 | 0.00 | 0.00 | 51 | 1008.7 |
| 20260831115501 | 81 | 355 | 0.0 | 5.0 | 0.00 | 0.00 | 0.00 | 51 | 1008.5 |
| 20260831115000 | 81 | 355 | 1.0 | 5.0 | 0.00 | 0.00 | 0.00 | 51 | 1008.4 |
| 20260831114603 | 81 | 5 | 0.0 | 6.0 | 0.00 | 0.00 | 0.00 | 51 | 1008.4 |
| 20260831114100 | 81 | 57 | 3.0 | 6.0 | 0.00 | 0.00 | 0.00 | 50 | 1008.4 |
| 20260831113600 | 81 | 28 | 1.0 | 7.0 | 0.00 | 0.00 | 0.00 | 50 | 1008.4 |
| 20260831113108 | 81 | 15 | 1.0 | 7.0 | 0.00 | 0.00 | 0.00 | 51 | 1008.3 |
| 20260831113001 | 81 | 55 | 1.0 | 7.0 | 0.00 | 0.00 | 0.00 | 51 | 1008.3 |
| 20260831112559 | 81 | 338 | 2.0 | 7.0 | 0.00 | 0.00 | 0.00 | 51 | 1008.3 |
| 20260831112058 | 81 | 31 | 3.0 | 7.0 | 0.00 | 0.00 | 0.00 | 51 | 1008.1 |
| 20260831111557 | 80 | 42 | 1.0 | 7.0 | 0.00 | 0.00 | 0.00 | 52 | 1008.0 |
| 20260831111058 | 80 | 40 | 2.0 | 6.0 | 0.00 | 0.00 | 0.00 | 53 | 1008.0 |
| 20260831110557 | 80 | 46 | 3.0 | 6.0 | 0.00 | 0.00 | 0.00 | 54 | 1008.0 |
| 20260831110058 | 80 | 27 | 1.0 | 6.0 | 0.00 | 0.00 | 0.00 | 54 | 1007.9 |
| 20260831105559 | 80 | 348 | 2.0 | 7.0 | 0.00 | 0.00 | 0.00 | 55 | 1007.9 |
| 20260831105127 | 80 | 52 | 4.0 | 7.0 | 0.00 | 0.00 | 0.00 | 55 | 1007.8 |
| 20260831104600 | 80 | 5 | 3.0 | 6.0 | 0.00 | 0.00 | 0.00 | 55 | 1007.8 |
| 20260831104057 | 80 | 42 | 2.0 | 9.0 | 0.00 | 0.00 | 0.00 | 56 | 1007.9 |
| 20260831103557 | 80 | 42 | 3.0 | 9.0 | 0.00 | 0.00 | 0.00 | 57 | 1007.8 |
| 20260831103100 | 79 | 344 | 2.0 | 6.0 | 0.00 | 0.00 | 0.00 | 57 | 1007.7 |
| 20260831102556 | 79 | 19 | 2.0 | 6.0 | 0.00 | 0.00 | 0.00 | 57 | 1007.8 |
| 20260831102056 | 79 | 36 | 1.0 | 6.0 | 0.00 | 0.00 | 0.00 | 60 | 1007.8 |
| 20260831101555 | 79 | 5 | 3.0 | 6.0 | 0.00 | 0.00 | 0.00 | 60 | 1007.8 |
| 20260831101055 | 79 | 41 | 4.0 | 7.0 | 0.00 | 0.00 | 0.00 | 59 | 1007.8 |
| 20260831100554 | 79 | 49 | 4.0 | 7.0 | 0.00 | 0.00 | 0.00 | 59 | 1008.0 |
| 20260831100054 | 79 | 19 | 3.0 | 6.0 | 0.00 | 0.00 | 0.00 | 59 | 1008.1 |
| 20260831095553 | 80 | 19 | 2.0 | 6.0 | 0.00 | 0.00 | 0.00 | 59 | 1008.1 |
| 20260831095052 | 80 | 64 | 3.0 | 7.0 | 0.00 | 0.00 | 0.00 | 59 | 1008.1 |
| 20260831094602 | 80 | 57 | 2.0 | 7.0 | 0.00 | 0.00 | 0.00 | 59 | 1008.0 |
| 20260831094051 | 80 | 76 | 3.0 | 7.0 | 0.00 | 0.00 | 0.00 | 58 | 1008.1 |
| 20260831093550 | 81 | 92 | 1.0 | 6.0 | 0.00 | 0.00 | 0.00 | 57 | 1008.0 |
| 20260831093136 | 81 | 87 | 0.0 | 6.0 | 0.00 | 0.00 | 0.00 | 56 | 1008.0 |
| 20260831092548 | 81 | 105 | 2.0 | 7.0 | 0.00 | 0.00 | 0.00 | 55 | 1007.9 |
| 20260831092047 | 81 | 58 | 3.0 | 7.0 | 0.00 | 0.00 | 0.00 | 55 | 1007.8 |
| 20260831091550 | 81 | 65 | 2.0 | 7.0 | 0.00 | 0.00 | 0.00 | 54 | 1007.8 |
| 20260831091045 | 82 | 46 | 2.0 | 10.0 | 0.00 | 0.00 | 0.00 | 53 | 1007.8 |
| 20260831090544 | 82 | 59 | 2.0 | 10.0 | 0.00 | 0.00 | 0.00 | 53 | 1007.8 |
| 20260831090043 | 83 | 55 | 5.0 | 11.0 | 0.00 | 0.00 | 0.00 | 51 | 1007.7 |
| 20260831085541 | 83 | 45 | 5.0 | 12.0 | 0.00 | 0.00 | 0.00 | 48 | 1007.5 |
| 20260831085040 | 84 | 80 | 6.0 | 14.0 | 0.00 | 0.00 | 0.00 | 47 | 1007.4 |
| 20260831084625 | 84 | 69 | 9.0 | 17.0 | 0.00 | 0.00 | 0.00 | 45 | 1007.2 |
| 20260831084037 | 85 | 30 | 10.0 | 19.0 | 0.00 | 0.00 | 0.00 | 44 | 1007.1 |
| 20260831083537 | 85 | 28 | 10.0 | 19.0 | 0.00 | 0.00 | 0.00 | 43 | 1007.1 |
| 20260831083045 | 86 | 88 | 8.0 | 15.0 | 0.00 | 0.00 | 0.00 | 41 | 1006.9 |
| 20260831082537 | 87 | 40 | 11.0 | 15.0 | 0.00 | 0.00 | 0.00 | 40 | 1006.9 |
| 20260831082037 | 86 | 57 | 8.0 | 15.0 | 0.00 | 0.00 | 0.00 | 40 | 1006.8 |
| 20260831081537 | 86 | 26 | 6.0 | 14.0 | 0.00 | 0.00 | 0.00 | 41 | 1006.8 |
| 20260831081037 | 87 | 56 | 10.0 | 14.0 | 0.00 | 0.00 | 0.00 | 41 | 1006.8 |
| 20260831080535 | 87 | 40 | 8.0 | 17.0 | 0.00 | 0.00 | 0.00 | 41 | 1006.8 |
| 20260831080043 | 87 | 53 | 7.0 | 17.0 | 0.00 | 0.00 | 0.00 | 41 | 1006.9 |
| 20260831075535 | 86 | 35 | 7.0 | 18.0 | 0.00 | 0.00 | 0.00 | 41 | 1007.0 |
| 20260831075033 | 86 | 360 | 11.0 | 21.0 | 0.00 | 0.00 | 0.00 | 42 | 1007.1 |
| 20260831074543 | 86 | 40 | 11.0 | 19.0 | 0.00 | 0.00 | 0.00 | 43 | 1007.1 |
| 20260831074032 | 86 | 27 | 9.0 | 21.0 | 0.00 | 0.00 | 0.00 | 45 | 1007.2 |
| 20260831073531 | 85 | 63 | 10.0 | 21.0 | 0.00 | 0.00 | 0.00 | 45 | 1007.2 |
| 20260831073031 | 85 | 5 | 14.0 | 20.0 | 0.00 | 0.00 | 0.00 | 46 | 1007.2 |
| 20260831072529 | 85 | 5 | 11.0 | 22.0 | 0.00 | 0.00 | 0.00 | 47 | 1007.1 |
| 20260831072028 | 85 | 29 | 11.0 | 22.0 | 0.00 | 0.00 | 0.00 | 48 | 1007.2 |
| 20260831071536 | 85 | 24 | 11.0 | 19.0 | 0.00 | 0.00 | 0.00 | 48 | 1007.3 |
| 20260831071027 | 85 | 31 | 9.0 | 19.0 | 0.00 | 0.00 | 0.00 | 47 | 1007.3 |
| 20260831070525 | 86 | 59 | 10.0 | 17.0 | 0.00 | 0.00 | 0.00 | 47 | 1007.3 |
| 20260831070029 | 86 | 333 | 8.0 | 15.0 | 0.00 | 0.00 | 0.00 | 47 | 1007.2 |
| 20260831065526 | 86 | 360 | 7.0 | 18.0 | 0.00 | 0.00 | 0.00 | 46 | 1007.4 |
| 20260831065025 | 87 | 337 | 7.0 | 19.0 | 0.00 | 0.00 | 0.00 | 45 | 1007.5 |
| 20260831064527 | 87 | 355 | 11.0 | 19.0 | 0.00 | 0.00 | 0.00 | 46 | 1007.3 |
| 20260831064024 | 86 | 5 | 11.0 | 17.0 | 0.00 | 0.00 | 0.00 | 44 | 1007.4 |
| 20260831063523 | 86 | 360 | 8.0 | 19.0 | 0.00 | 0.00 | 0.00 | 46 | 1007.4 |
| 20260831063023 | 85 | 328 | 11.0 | 19.0 | 0.00 | 0.00 | 0.00 | 48 | 1007.5 |
| 20260831062524 | 84 | 325 | 10.0 | 19.0 | 0.00 | 0.00 | 0.00 | 51 | 1007.6 |
| 20260831062022 | 83 | 333 | 11.0 | 19.0 | 0.00 | 0.00 | 0.00 | 53 | 1007.7 |
| 20260831061521 | 83 | 5 | 8.0 | 19.0 | 0.00 | 0.00 | 0.00 | 55 | 1007.8 |
| 20260831061021 | 84 | 348 | 7.0 | 15.0 | 0.00 | 0.00 | 0.00 | 57 | 1007.9 |
| 20260831060518 | 85 | 13 | 6.0 | 12.0 | 0.00 | 0.00 | 0.00 | 54 | 1007.8 |
| 20260831060018 | 86 | 350 | 7.0 | 12.0 | 0.00 | 0.00 | 0.00 | 52 | 1008.0 |
| 20260831055518 | 86 | 338 | 5.0 | 12.0 | 0.00 | 0.00 | 0.00 | 50 | 1008.2 |
| 20260831055018 | 86 | 343 | 4.0 | 12.0 | 0.00 | 0.00 | 0.00 | 50 | 1008.4 |
| 20260831054521 | 86 | 326 | 2.0 | 8.0 | 0.00 | 0.00 | 0.00 | 50 | 1008.6 |
| 20260831054018 | 85 | 344 | 5.0 | 12.0 | 0.00 | 0.00 | 0.00 | 50 | 1008.7 |
| 20260831053519 | 85 | 17 | 5.0 | 13.0 | 0.00 | 0.00 | 0.00 | 51 | 1008.7 |
| 20260831053018 | 85 | 349 | 5.0 | 13.0 | 0.00 | 0.00 | 0.00 | 52 | 1008.8 |
| 20260831052517 | 85 | 325 | 6.0 | 14.0 | 0.00 | 0.00 | 0.00 | 52 | 1008.8 |
| 20260831052017 | 84 | 341 | 8.0 | 14.0 | 0.00 | 0.00 | 0.00 | 52 | 1008.6 |
| 20260831051526 | 84 | 327 | 7.0 | 11.0 | 0.00 | 0.00 | 0.00 | 54 | 1008.4 |
| 20260831051015 | 86 | 334 | 3.0 | 8.0 | 0.00 | 0.00 | 0.00 | 52 | 1008.4 |
| 20260831050520 | 87 | 51 | 0.0 | 11.0 | 0.00 | 0.00 | 0.00 | 51 | 1008.5 |
| 20260831050015 | 88 | 72 | 2.0 | 10.0 | 0.00 | 0.00 | 0.00 | 47 | 1008.3 |
| 20260831045518 | 89 | 207 | 1.0 | 13.0 | 0.00 | 0.00 | 0.00 | 45 | 1008.0 |
| 20260831045014 | 89 | 213 | 2.0 | 13.0 | 0.00 | 0.00 | 0.00 | 42 | 1007.6 |
| 20260831044517 | 90 | 218 | 4.0 | 13.0 | 0.00 | 0.00 | 0.00 | 43 | 1007.4 |
| 20260831044014 | 90 | 229 | 4.0 | 10.0 | 0.00 | 0.00 | 0.00 | 44 | 1007.0 |
| 20260831043514 | 90 | 233 | 1.0 | 11.0 | 0.00 | 0.00 | 0.00 | 43 | 1006.7 |
| 20260831043014 | 91 | 254 | 3.0 | 16.0 | 0.00 | 0.00 | 0.00 | 42 | 1006.7 |
| 20260831042514 | 92 | 203 | 3.0 | 16.0 | 0.00 | 0.00 | 0.00 | 41 | 1006.7 |
| 20260831042014 | 93 | 209 | 2.0 | 15.0 | 0.00 | 0.00 | 0.00 | 40 | 1006.7 |
| 20260831041516 | 93 | 204 | 3.0 | 10.0 | 0.00 | 0.00 | 0.00 | 39 | 1006.7 |
| 20260831041013 | 94 | 221 | 4.0 | 11.0 | 0.00 | 0.00 | 0.00 | 39 | 1006.2 |
| 20260831040515 | 94 | 153 | 4.0 | 11.0 | 0.00 | 0.00 | 0.00 | 38 | 1006.1 |
| 20260831040021 | 95 | 196 | 4.0 | 16.0 | 0.00 | 0.00 | 0.00 | 37 | 1006.0 |
| 20260831035512 | 97 | 259 | 6.0 | 16.0 | 0.00 | 0.00 | 0.00 | 36 | 1005.8 |
| 20260831035012 | 98 | 225 | 3.0 | 7.0 | 0.00 | 0.00 | 0.00 | 33 | 1005.6 |
| 20260831034512 | 98 | 211 | 1.0 | 5.0 | 0.00 | 0.00 | 0.00 | 33 | 1005.0 |
| 20260831034012 | 98 | 205 | 0.0 | 5.0 | 0.00 | 0.00 | 0.00 | 33 | 1004.8 |
| 20260831033512 | 98 | 273 | 1.0 | 5.0 | 0.00 | 0.00 | 0.00 | 33 | 1004.8 |
| 20260831033012 | 98 | 268 | 1.0 | 8.0 | 0.00 | 0.00 | 0.00 | 33 | 1004.8 |
| 20260831032512 | 98 | 187 | 0.0 | 8.0 | 0.00 | 0.00 | 0.00 | 33 | 1004.8 |
| 20260831032011 | 99 | 310 | 0.0 | 3.0 | 0.00 | 0.00 | 0.00 | 33 | 1005.0 |
| 20260831031511 | 99 | 194 | 1.0 | 4.0 | 0.00 | 0.00 | 0.00 | 33 | 1005.1 |
| 20260831031010 | 99 | 250 | 0.0 | 4.0 | 0.00 | 0.00 | 0.00 | 32 | 1005.1 |
| 20260831030511 | 99 | 228 | 0.0 | 3.0 | 0.00 | 0.00 | 0.00 | 32 | 1005.0 |
| 20260831030010 | 99 | 234 | 0.0 | 3.0 | 0.00 | 0.00 | 0.00 | 32 | 1004.9 |
| 20260831025511 | 99 | 238 | 0.0 | 3.0 | 0.00 | 0.00 | 0.00 | 32 | 1004.6 |
| 20260831025011 | 99 | 243 | 0.0 | 4.0 | 0.00 | 0.00 | 0.00 | 32 | 1004.5 |
| 20260831024510 | 99 | 224 | 1.0 | 3.0 | 0.00 | 0.00 | 0.00 | 31 | 1004.4 |
| 20260831024010 | 99 | 244 | 0.0 | 5.0 | 0.00 | 0.00 | 0.00 | 31 | 1004.4 |
| 20260831023512 | 99 | 230 | 1.0 | 5.0 | 0.00 | 0.00 | 0.00 | 30 | 1004.4 |
| 20260831023009 | 99 | 201 | 0.0 | 4.0 | 0.00 | 0.00 | 0.00 | 30 | 1004.3 |
| 20260831022509 | 100 | 196 | 0.0 | 4.0 | 0.00 | 0.00 | 0.00 | 30 | 1004.3 |
| 20260831022009 | 100 | 197 | 0.0 | 3.0 | 0.00 | 0.00 | 0.00 | 30 | 1004.2 |
| 20260831021509 | 100 | 197 | 0.0 | 5.0 | 0.00 | 0.00 | 0.00 | 29 | 1004.1 |
| 20260831021009 | 100 | 239 | 2.0 | 5.0 | 0.00 | 0.00 | 0.00 | 29 | 1004.0 |
| 20260831020510 | 100 | 234 | 1.0 | 6.0 | 0.00 | 0.00 | 0.00 | 29 | 1003.9 |
| 20260831020009 | 100 | 257 | 1.0 | 6.0 | 0.00 | 0.00 | 0.00 | 29 | 1003.9 |
| 20260831015508 | 100 | 219 | 0.0 | 6.0 | 0.00 | 0.00 | 0.00 | 29 | 1003.8 |
| 20260831015008 | 101 | 223 | 2.0 | 6.0 | 0.00 | 0.00 | 0.00 | 28 | 1003.7 |
| 20260831014508 | 101 | 290 | 0.0 | 5.0 | 0.00 | 0.00 | 0.00 | 28 | 1003.6 |
| 20260831014008 | 101 | 279 | 1.0 | 5.0 | 0.00 | 0.00 | 0.00 | 29 | 1003.6 |
| 20260831013508 | 102 | 167 | 1.0 | 4.0 | 0.00 | 0.00 | 0.00 | 28 | 1003.6 |
| 20260831013009 | 102 | 240 | 0.0 | 4.0 | 0.00 | 0.00 | 0.00 | 28 | 1003.5 |
| 20260831012508 | 102 | 198 | 1.0 | 4.0 | 0.00 | 0.00 | 0.00 | 28 | 1003.4 |
| 20260831012006 | 102 | 254 | 1.0 | 6.0 | 0.00 | 0.00 | 0.00 | 28 | 1003.4 |
| 20260831011514 | 103 | 213 | 2.0 | 6.0 | 0.00 | 0.00 | 0.00 | 27 | 1003.5 |
| 20260831011005 | 103 | 196 | 2.0 | 9.0 | 0.00 | 0.00 | 0.00 | 27 | 1003.6 |
| 20260831010505 | 103 | 255 | 3.0 | 9.0 | 0.00 | 0.00 | 0.00 | 27 | 1003.6 |
| 20260831010005 | 103 | 193 | 0.0 | 6.0 | 0.00 | 0.00 | 0.00 | 27 | 1003.6 |
| 20260831005504 | 103 | 184 | 1.0 | 6.0 | 0.00 | 0.00 | 0.00 | 27 | 1003.7 |
| 20260831005004 | 103 | 202 | 2.0 | 5.0 | 0.00 | 0.00 | 0.00 | 27 | 1003.7 |
| 20260831004504 | 104 | 236 | 1.0 | 7.0 | 0.00 | 0.00 | 0.00 | 28 | 1003.8 |
| 20260831004002 | 104 | 315 | 2.0 | 7.0 | 0.00 | 0.00 | 0.00 | 27 | 1003.8 |
| 20260831003502 | 104 | 313 | 2.0 | 7.0 | 0.00 | 0.00 | 0.00 | 28 | 1003.7 |
| 20260831003003 | 105 | 212 | 1.0 | 5.0 | 0.00 | 0.00 | 0.00 | 28 | 1003.8 |
| 20260831002502 | 104 | 184 | 0.0 | 4.0 | 0.00 | 0.00 | 0.00 | 28 | 1003.8 |
| 20260831002003 | 104 | 186 | 1.0 | 6.0 | 0.00 | 0.00 | 0.00 | 28 | 1003.8 |
| 20260831001504 | 104 | 171 | 1.0 | 7.0 | 0.00 | 0.00 | 0.00 | 28 | 1003.8 |
| 20260831001001 | 104 | 186 | 2.0 | 7.0 | 0.00 | 0.00 | 0.00 | 29 | 1003.9 |
| 20260831000501 | 104 | 286 | 2.0 | 9.0 | 0.00 | 0.00 | 0.00 | 28 | 1003.9 |
| 20260830235559 | 104 | 245 | 2.0 | 5.0 | 0.00 | 0.00 | 0.00 | 29 | 1004.0 |
| 20260830235103 | 104 | 248 | 1.0 | 8.0 | 0.00 | 0.00 | 0.00 | 29 | 1004.1 |
| 20260830234559 | 104 | 321 | 3.0 | 10.0 | 0.00 | 0.00 | 0.00 | 29 | 1004.1 |
| 20260830234059 | 104 | 244 | 5.0 | 10.0 | 0.00 | 0.00 | 0.00 | 28 | 1004.1 |
| 20260830233559 | 105 | 304 | 3.0 | 9.0 | 0.00 | 0.00 | 0.00 | 28 | 1004.1 |
| 20260830233121 | 105 | 273 | 2.0 | 8.0 | 0.00 | 0.00 | 0.00 | 27 | 1004.2 |
| 20260830232558 | 105 | 225 | 2.0 | 7.0 | 0.00 | 0.00 | 0.00 | 27 | 1004.2 |
| 20260830232058 | 106 | 231 | 2.0 | 7.0 | 0.00 | 0.00 | 0.00 | 27 | 1004.3 |
| 20260830231556 | 106 | 190 | 1.0 | 4.0 | 0.00 | 0.00 | 0.00 | 27 | 1004.3 |
| 20260830231101 | 106 | 288 | 0.0 | 4.0 | 0.00 | 0.00 | 0.00 | 27 | 1004.4 |
| 20260830230559 | 105 | 180 | 1.0 | 5.0 | 0.00 | 0.00 | 0.00 | 27 | 1004.6 |
| 20260830230104 | 105 | 193 | 1.0 | 7.0 | 0.00 | 0.00 | 0.00 | 28 | 1004.6 |
| 20260830225555 | 105 | 287 | 2.0 | 7.0 | 0.00 | 0.00 | 0.00 | 27 | 1004.6 |
| 20260830225053 | 105 | 270 | 2.0 | 7.0 | 0.00 | 0.00 | 0.00 | 27 | 1004.7 |
| 20260830224555 | 105 | 290 | 2.0 | 7.0 | 0.00 | 0.00 | 0.00 | 27 | 1004.8 |
| 20260830224050 | 105 | 125 | 2.0 | 8.0 | 0.00 | 0.00 | 0.00 | 27 | 1004.9 |
| 20260830223550 | 104 | 157 | 2.0 | 8.0 | 0.00 | 0.00 | 0.00 | 28 | 1005.0 |
| 20260830223049 | 104 | 244 | 3.0 | 8.0 | 0.00 | 0.00 | 0.00 | 28 | 1005.2 |
| 20260830222549 | 104 | 282 | 4.0 | 8.0 | 0.00 | 0.00 | 0.00 | 28 | 1005.2 |
| 20260830222048 | 105 | 227 | 3.0 | 7.0 | 0.00 | 0.00 | 0.00 | 28 | 1005.4 |
| 20260830221547 | 104 | 190 | 2.0 | 8.0 | 0.00 | 0.00 | 0.00 | 28 | 1005.4 |
| 20260830221048 | 104 | 259 | 1.0 | 9.0 | 0.00 | 0.00 | 0.00 | 29 | 1005.5 |
| 20260830220546 | 104 | 281 | 3.0 | 9.0 | 0.00 | 0.00 | 0.00 | 28 | 1005.6 |
| 20260830220045 | 104 | 275 | 0.0 | 9.0 | 0.00 | 0.00 | 0.00 | 28 | 1005.7 |
| 20260830215543 | 104 | 297 | 2.0 | 9.0 | 0.00 | 0.00 | 0.00 | 28 | 1005.8 |
| 20260830215046 | 104 | 214 | 4.0 | 9.0 | 0.00 | 0.00 | 0.00 | 28 | 1005.9 |
| 20260830214543 | 104 | 231 | 3.0 | 8.0 | 0.00 | 0.00 | 0.00 | 29 | 1006.0 |
| 20260830214043 | 103 | 66 | 1.0 | 5.0 | 0.00 | 0.00 | 0.00 | 30 | 1006.0 |
| 20260830213541 | 104 | 279 | 2.0 | 6.0 | 0.00 | 0.00 | 0.00 | 28 | 1006.2 |
| 20260830213041 | 104 | 254 | 3.0 | 8.0 | 0.00 | 0.00 | 0.00 | 29 | 1006.3 |
| 20260830212540 | 104 | 260 | 3.0 | 8.0 | 0.00 | 0.00 | 0.00 | 29 | 1006.4 |
| 20260830212040 | 105 | 210 | 2.0 | 7.0 | 0.00 | 0.00 | 0.00 | 29 | 1006.4 |
| 20260830211548 | 104 | 175 | 2.0 | 8.0 | 0.00 | 0.00 | 0.00 | 29 | 1006.5 |
| 20260830211040 | 103 | 203 | 2.0 | 6.0 | 0.00 | 0.00 | 0.00 | 30 | 1006.5 |
| 20260830210537 | 103 | 250 | 2.0 | 6.0 | 0.00 | 0.00 | 0.00 | 31 | 1006.6 |
| 20260830210037 | 103 | 315 | 1.0 | 6.0 | 0.00 | 0.00 | 0.00 | 31 | 1006.7 |
| 20260830205540 | 103 | 315 | 1.0 | 6.0 | 0.00 | 0.00 | 0.00 | 31 | 1006.9 |
| 20260830205036 | 103 | 179 | 1.0 | 6.0 | 0.00 | 0.00 | 0.00 | 31 | 1007.0 |
| 20260830204536 | 103 | 215 | 2.0 | 7.0 | 0.00 | 0.00 | 0.00 | 31 | 1007.0 |
| 20260830204036 | 103 | 221 | 2.0 | 7.0 | 0.00 | 0.00 | 0.00 | 31 | 1007.2 |
| 20260830203536 | 103 | 279 | 1.0 | 7.0 | 0.00 | 0.00 | 0.00 | 31 | 1007.3 |
| 20260830203037 | 103 | 217 | 0.0 | 5.0 | 0.00 | 0.00 | 0.00 | 30 | 1007.3 |
| 20260830202535 | 102 | 129 | 1.0 | 7.0 | 0.00 | 0.00 | 0.00 | 31 | 1007.5 |
| 20260830202036 | 102 | 202 | 2.0 | 7.0 | 0.00 | 0.00 | 0.00 | 31 | 1007.5 |
| 20260830201538 | 102 | 302 | 2.0 | 7.0 | 0.00 | 0.00 | 0.00 | 30 | 1007.6 |
| 20260830201034 | 103 | 214 | 3.0 | 7.0 | 0.00 | 0.00 | 0.00 | 30 | 1007.7 |
| 20260830200538 | 103 | 289 | 3.0 | 7.0 | 0.00 | 0.00 | 0.00 | 30 | 1007.8 |
| 20260830200035 | 104 | 226 | 3.0 | 7.0 | 0.00 | 0.00 | 0.00 | 30 | 1007.9 |
| 20260830195535 | 104 | 231 | 2.0 | 7.0 | 0.00 | 0.00 | 0.00 | 30 | 1007.9 |
| 20260830195033 | 103 | 261 | 1.0 | 7.0 | 0.00 | 0.00 | 0.00 | 31 | 1007.8 |
| 20260830194533 | 103 | 355 | 0.0 | 7.0 | 0.00 | 0.00 | 0.00 | 31 | 1007.9 |
| 20260830194033 | 103 | 227 | 1.0 | 7.0 | 0.00 | 0.00 | 0.00 | 31 | 1008.0 |
| 20260830193531 | 103 | 183 | 3.0 | 7.0 | 0.00 | 0.00 | 0.00 | 31 | 1008.1 |
| 20260830193031 | 103 | 252 | 2.0 | 5.0 | 0.00 | 0.00 | 0.00 | 31 | 1008.1 |
| 20260830192530 | 102 | 131 | 1.0 | 8.0 | 0.00 | 0.00 | 0.00 | 31 | 1008.2 |
| 20260830192029 | 102 | 243 | 0.0 | 6.0 | 0.00 | 0.00 | 0.00 | 31 | 1008.3 |
| 20260830191528 | 102 | 121 | 1.0 | 6.0 | 0.00 | 0.00 | 0.00 | 33 | 1008.4 |
| 20260830191027 | 101 | 269 | 1.0 | 5.0 | 0.00 | 0.00 | 0.00 | 33 | 1008.4 |
| 20260830190527 | 101 | 260 | 1.0 | 4.0 | 0.00 | 0.00 | 0.00 | 32 | 1008.5 |
| 20260830190027 | 101 | 265 | 1.0 | 4.0 | 0.00 | 0.00 | 0.00 | 33 | 1008.6 |
| 20260830185525 | 101 | 226 | 1.0 | 5.0 | 0.00 | 0.00 | 0.00 | 33 | 1008.7 |
| 20260830185027 | 101 | 299 | 1.0 | 6.0 | 0.00 | 0.00 | 0.00 | 33 | 1008.7 |
| 20260830184525 | 101 | 192 | 1.0 | 6.0 | 0.00 | 0.00 | 0.00 | 33 | 1008.9 |
| 20260830184023 | 100 | 157 | 1.0 | 5.0 | 0.00 | 0.00 | 0.00 | 33 | 1008.9 |
| 20260830183522 | 100 | 169 | 2.0 | 6.0 | 0.00 | 0.00 | 0.00 | 33 | 1009.0 |
| 20260830183032 | 100 | 208 | 1.0 | 6.0 | 0.00 | 0.00 | 0.00 | 33 | 1009.1 |
| 20260830182521 | 99 | 111 | 2.0 | 6.0 | 0.00 | 0.00 | 0.00 | 34 | 1009.1 |
| 20260830182024 | 99 | 206 | 1.0 | 6.0 | 0.00 | 0.00 | 0.00 | 34 | 1009.1 |
| 20260830181521 | 99 | 260 | 4.0 | 6.0 | 0.00 | 0.00 | 0.00 | 34 | 1009.2 |
| 20260830181020 | 99 | 292 | 2.0 | 6.0 | 0.00 | 0.00 | 0.00 | 34 | 1009.3 |
| 20260830180518 | 99 | 174 | 2.0 | 6.0 | 0.00 | 0.00 | 0.00 | 33 | 1009.3 |
| 20260830180030 | 100 | 252 | 2.0 | 6.0 | 0.00 | 0.00 | 0.00 | 33 | 1009.4 |
| 20260830175516 | 99 | 201 | 1.0 | 5.0 | 0.00 | 0.00 | 0.00 | 34 | 1009.4 |
| 20260830175015 | 99 | 131 | 2.0 | 4.0 | 0.00 | 0.00 | 0.00 | 33 | 1009.5 |
| 20260830174519 | 99 | 225 | 0.0 | 4.0 | 0.00 | 0.00 | 0.00 | 33 | 1009.5 |
| 20260830174014 | 98 | 202 | 1.0 | 5.0 | 0.00 | 0.00 | 0.00 | 34 | 1009.5 |
| 20260830173512 | 98 | 210 | 2.0 | 5.0 | 0.00 | 0.00 | 0.00 | 34 | 1009.5 |
| 20260830173011 | 97 | 296 | 0.0 | 5.0 | 0.00 | 0.00 | 0.00 | 35 | 1009.6 |
| 20260830172510 | 97 | 294 | 2.0 | 5.0 | 0.00 | 0.00 | 0.00 | 34 | 1009.6 |
| 20260830172011 | 97 | 263 | 1.0 | 5.0 | 0.00 | 0.00 | 0.00 | 35 | 1009.6 |
| 20260830171514 | 96 | 95 | 1.0 | 5.0 | 0.00 | 0.00 | 0.00 | 34 | 1009.6 |
| 20260830171007 | 96 | 122 | 1.0 | 3.0 | 0.00 | 0.00 | 0.00 | 35 | 1009.7 |
| 20260830170509 | 96 | 325 | 0.0 | 3.0 | 0.00 | 0.00 | 0.00 | 35 | 1009.7 |
| 20260830170005 | 96 | 309 | 1.0 | 3.0 | 0.00 | 0.00 | 0.00 | 37 | 1009.6 |
| 20260830165504 | 96 | 355 | 1.0 | 2.0 | 0.00 | 0.00 | 0.00 | 35 | 1009.6 |
| 20260830165005 | 96 | 50 | 0.0 | 2.0 | 0.00 | 0.00 | 0.00 | 35 | 1009.7 |
| 20260830164502 | 96 | 159 | 0.0 | 3.0 | 0.00 | 0.00 | 0.00 | 35 | 1009.7 |
| 20260830164100 | 95 | 217 | 0.0 | 3.0 | 0.00 | 0.00 | 0.00 | 36 | 1009.7 |
| 20260830163559 | 95 | 250 | 0.0 | 2.0 | 0.00 | 0.00 | 0.00 | 37 | 1009.7 |
| 20260830163102 | 95 | 44 | 0.0 | 4.0 | 0.00 | 0.00 | 0.00 | 37 | 1009.7 |
| 20260830162601 | 94 | 120 | 0.0 | 4.0 | 0.00 | 0.00 | 0.00 | 37 | 1009.7 |
| 20260830162056 | 94 | 98 | 0.0 | 3.0 | 0.00 | 0.00 | 0.00 | 38 | 1009.7 |
| 20260830161553 | 94 | 33 | 2.0 | 3.0 | 0.00 | 0.00 | 0.00 | 39 | 1009.7 |
| 20260830161055 | 94 | 122 | 0.0 | 3.0 | 0.00 | 0.00 | 0.00 | 38 | 1009.7 |
| 20260830160551 | 93 | 142 | 0.0 | 3.0 | 0.00 | 0.00 | 0.00 | 38 | 1009.8 |
| 20260830160101 | 93 | 130 | 0.0 | 4.0 | 0.00 | 0.00 | 0.00 | 38 | 1009.8 |
| 20260830155548 | 93 | 71 | 1.0 | 5.0 | 0.00 | 0.00 | 0.00 | 38 | 1009.6 |
| 20260830155047 | 92 | 115 | 0.0 | 3.0 | 0.00 | 0.00 | 0.00 | 39 | 1009.7 |
| 20260830154546 | 92 | 123 | 0.0 | 3.0 | 0.00 | 0.00 | 0.00 | 40 | 1009.6 |
| 20260830154045 | 91 | 199 | 0.0 | 3.0 | 0.00 | 0.00 | 0.00 | 41 | 1009.6 |
| 20260830153543 | 91 | 323 | 0.0 | 3.0 | 0.00 | 0.00 | 0.00 | 42 | 1009.6 |
| 20260830153041 | 90 | 112 | 0.0 | 4.0 | 0.00 | 0.00 | 0.00 | 42 | 1009.6 |
| 20260830152540 | 90 | 57 | 0.0 | 4.0 | 0.00 | 0.00 | 0.00 | 44 | 1009.6 |
| 20260830152040 | 90 | 108 | 0.0 | 3.0 | 0.00 | 0.00 | 0.00 | 44 | 1009.6 |
| 20260830151544 | 89 | 192 | 0.0 | 2.0 | 0.00 | 0.00 | 0.00 | 45 | 1009.6 |
| 20260830151036 | 89 | 148 | 0.0 | 2.0 | 0.00 | 0.00 | 0.00 | 46 | 1009.6 |
| 20260830150535 | 89 | 49 | 0.0 | 2.0 | 0.00 | 0.00 | 0.00 | 48 | 1009.7 |
| 20260830150034 | 89 | 328 | 0.0 | 2.0 | 0.00 | 0.00 | 0.00 | 48 | 1009.6 |
| 20260830145532 | 88 | 28 | 0.0 | 2.0 | 0.00 | 0.00 | 0.00 | 48 | 1009.6 |
| 20260830145031 | 88 | 43 | 0.0 | 3.0 | 0.00 | 0.00 | 0.00 | 48 | 1009.7 |
| 20260830144530 | 88 | 31 | 0.0 | 4.0 | 0.00 | 0.00 | 0.00 | 48 | 1009.6 |
| 20260830144029 | 88 | 81 | 1.0 | 4.0 | 0.00 | 0.00 | 0.00 | 49 | 1009.6 |
| 20260830143528 | 87 | 65 | 0.0 | 4.0 | 0.00 | 0.00 | 0.00 | 49 | 1009.7 |
| 20260830143034 | 87 | 71 | 1.0 | 4.0 | 0.00 | 0.00 | 0.00 | 49 | 1009.6 |
| 20260830142530 | 87 | 25 | 0.0 | 5.0 | 0.00 | 0.00 | 0.00 | 50 | 1009.7 |
| 20260830142025 | 86 | 103 | 2.0 | 5.0 | 0.00 | 0.00 | 0.00 | 49 | 1009.6 |
| 20260830141532 | 86 | 90 | 1.0 | 3.0 | 0.00 | 0.00 | 0.00 | 50 | 1009.6 |
| 20260830141021 | 85 | 63 | 0.0 | 2.0 | 0.00 | 0.00 | 0.00 | 52 | 1009.5 |
| 20260830140520 | 85 | 63 | 0.0 | 2.0 | 0.00 | 0.00 | 0.00 | 51 | 1009.4 |
| 20260830140020 | 85 | 107 | 0.0 | 2.0 | 0.00 | 0.00 | 0.00 | 50 | 1009.3 |
| 20260830135520 | 85 | 107 | 0.0 | 2.0 | 0.00 | 0.00 | 0.00 | 51 | 1009.3 |
| 20260830135020 | 85 | 41 | 0.0 | 2.0 | 0.00 | 0.00 | 0.00 | 53 | 1009.2 |
| 20260830134525 | 85 | 42 | 1.0 | 2.0 | 0.00 | 0.00 | 0.00 | 50 | 1009.0 |
| 20260830134017 | 85 | 44 | 0.0 | 3.0 | 0.00 | 0.00 | 0.00 | 51 | 1009.0 |
| 20260830133517 | 85 | 53 | 0.0 | 2.0 | 0.00 | 0.00 | 0.00 | 51 | 1009.0 |
| 20260830133021 | 85 | 30 | 0.0 | 3.0 | 0.00 | 0.00 | 0.00 | 52 | 1008.8 |
| 20260830132514 | 85 | 55 | 0.0 | 2.0 | 0.00 | 0.00 | 0.00 | 51 | 1008.8 |
| 20260830132013 | 85 | 24 | 0.0 | 3.0 | 0.00 | 0.00 | 0.00 | 52 | 1008.7 |
| 20260830131513 | 85 | 5 | 1.0 | 4.0 | 0.00 | 0.00 | 0.00 | 52 | 1008.6 |
| 20260830131012 | 85 | 37 | 2.0 | 5.0 | 0.00 | 0.00 | 0.00 | 52 | 1008.5 |
| 20260830130511 | 85 | 54 | 2.0 | 5.0 | 0.00 | 0.00 | 0.00 | 51 | 1008.5 |
| 20260830130011 | 85 | 59 | 2.0 | 6.0 | 0.00 | 0.00 | 0.00 | 51 | 1008.4 |
| 20260830125509 | 85 | 46 | 3.0 | 6.0 | 0.00 | 0.00 | 0.00 | 52 | 1008.2 |